MSR673 HECA-OEJN

Flight info

Callsign MSR673
Flight time 1h 49m
Altitude 37000
Route CVO A727 NABED T55 DEDLU M999 MUVOL
Aircraft A320/M-SDE3FGHIRWY/LB1

Departure

Time 2026-05-05 13:30
Airport Cairo International Airport (HECA)

Arrival

Time 2026-05-05 15:20
Airport King Abdulaziz International Airport (OEJN)
Time Latitude Longitude Altitude Speed Heading
2026-05-05 12:44 30.10850 31.39856 370 ft 0 kts 76°
2026-05-05 13:19 30.10848 31.39848 370 ft 4 kts 77°
2026-05-05 13:19 30.10842 31.39818 370 ft 3 kts 76°
2026-05-05 13:20 30.10836 31.39793 373 ft 4 kts 65°
2026-05-05 13:20 30.10822 31.39766 372 ft 4 kts 56°
2026-05-05 13:20 30.10813 31.39747 370 ft 3 kts 124°
2026-05-05 13:20 30.10814 31.39745 370 ft 0 kts 129°
2026-05-05 13:24 30.10811 31.39748 370 ft 2 kts 130°
2026-05-05 13:24 30.10784 31.39770 370 ft 6 kts 155°
2026-05-05 13:25 30.10737 31.39786 374 ft 8 kts 165°
2026-05-05 13:25 30.10678 31.39804 370 ft 10 kts 165°
2026-05-05 13:25 30.10608 31.39825 371 ft 10 kts 166°
2026-05-05 13:25 30.10548 31.39843 374 ft 8 kts 165°
2026-05-05 13:26 30.10501 31.39858 376 ft 6 kts 165°
2026-05-05 13:26 30.10446 31.39873 379 ft 10 kts 171°
2026-05-05 13:26 30.10389 31.39836 380 ft 10 kts 229°
2026-05-05 13:26 30.10334 31.39762 382 ft 12 kts 229°
2026-05-05 13:27 30.10274 31.39684 386 ft 15 kts 229°
2026-05-05 13:27 30.10203 31.39588 389 ft 15 kts 226°
2026-05-05 13:27 30.10121 31.39590 389 ft 11 kts 141°
2026-05-05 13:27 30.10063 31.39647 389 ft 11 kts 139°
2026-05-05 13:28 30.10035 31.39676 388 ft 0 kts 138°
2026-05-05 13:28 30.10028 31.39683 388 ft 2 kts 137°
2026-05-05 13:28 30.10007 31.39724 388 ft 10 kts 112°
2026-05-05 13:28 30.09998 31.39816 388 ft 12 kts 92°
2026-05-05 13:29 30.10026 31.39908 388 ft 13 kts 49°
2026-05-05 13:29 30.10039 31.39925 388 ft 0 kts 49°
2026-05-05 13:29 30.10138 31.40057 388 ft 55 kts 49°
2026-05-05 13:29 30.10528 31.40575 387 ft 114 kts 49°
2026-05-05 13:30 30.11154 31.41407 389 ft 158 kts 49°
2026-05-05 13:30 30.11918 31.42434 677 ft 172 kts 49°
2026-05-05 13:30 30.12578 31.43593 1233 ft 178 kts 72°
2026-05-05 13:30 30.12556 31.45007 1755 ft 183 kts 111°
2026-05-05 13:31 30.11717 31.46193 1973 ft 204 kts 148°
2026-05-05 13:31 30.10302 31.46710 2190 ft 227 kts 175°
2026-05-05 13:31 30.08654 31.46907 2535 ft 250 kts 175°
2026-05-05 13:31 30.06862 31.47127 3092 ft 265 kts 175°
2026-05-05 13:32 30.05005 31.47357 3913 ft 270 kts 175°
2026-05-05 13:32 30.03126 31.47594 4777 ft 273 kts 175°
2026-05-05 13:32 30.01230 31.47839 5605 ft 276 kts 175°
2026-05-05 13:32 29.99309 31.48087 6446 ft 279 kts 175°
2026-05-05 13:33 29.97367 31.48336 7257 ft 283 kts 175°
2026-05-05 13:33 29.95423 31.48589 8025 ft 287 kts 175°
2026-05-05 13:33 29.93426 31.48848 8808 ft 290 kts 175°
2026-05-05 13:33 29.91406 31.49106 9565 ft 293 kts 175°
2026-05-05 13:34 29.89366 31.49363 10267 ft 299 kts 175°
2026-05-05 13:34 29.87215 31.49631 10462 ft 322 kts 175°
2026-05-05 13:34 29.84907 31.49920 10614 ft 344 kts 175°
2026-05-05 13:34 29.82485 31.50230 11087 ft 354 kts 175°
2026-05-05 13:35 29.80022 31.50548 11712 ft 358 kts 175°
2026-05-05 13:35 29.77562 31.50865 12344 ft 362 kts 175°
2026-05-05 13:35 29.75044 31.51189 12974 ft 366 kts 175°
2026-05-05 13:35 29.72501 31.51515 13600 ft 369 kts 175°
2026-05-05 13:36 29.69945 31.51909 14183 ft 374 kts 170°
2026-05-05 13:36 29.67414 31.52686 14756 ft 379 kts 166°
2026-05-05 13:36 29.64868 31.53524 15327 ft 382 kts 166°
2026-05-05 13:36 29.62302 31.54365 15876 ft 385 kts 167°
2026-05-05 13:37 29.59712 31.55210 16407 ft 389 kts 167°
2026-05-05 13:37 29.57094 31.56064 16937 ft 393 kts 167°
2026-05-05 13:37 29.54454 31.56927 17483 ft 397 kts 167°
2026-05-05 13:37 29.51788 31.57799 18024 ft 400 kts 167°
2026-05-05 13:38 29.49138 31.58666 18564 ft 403 kts 167°
2026-05-05 13:38 29.46425 31.59554 19097 ft 407 kts 167°
2026-05-05 13:38 29.43692 31.60450 19652 ft 410 kts 167°
2026-05-05 13:38 29.40937 31.61349 20200 ft 413 kts 167°
2026-05-05 13:39 29.38158 31.62253 20722 ft 417 kts 168°
2026-05-05 13:39 29.35356 31.63162 21220 ft 420 kts 168°
2026-05-05 13:39 29.32536 31.64076 21686 ft 423 kts 168°
2026-05-05 13:39 29.29698 31.64998 22144 ft 425 kts 168°
2026-05-05 13:40 29.26840 31.65930 22570 ft 428 kts 168°
2026-05-05 13:40 29.24003 31.66852 22987 ft 431 kts 168°
2026-05-05 13:40 29.21109 31.67793 23407 ft 434 kts 168°
2026-05-05 13:40 29.18200 31.68739 23822 ft 436 kts 168°
2026-05-05 13:41 29.15269 31.69689 24210 ft 439 kts 168°
2026-05-05 13:41 29.12322 31.70643 24595 ft 441 kts 168°
2026-05-05 13:41 29.09361 31.71602 24973 ft 443 kts 168°
2026-05-05 13:41 29.06387 31.72565 25335 ft 446 kts 168°
2026-05-05 13:42 29.03399 31.73532 25685 ft 448 kts 168°
2026-05-05 13:42 29.00439 31.74490 26033 ft 449 kts 168°
2026-05-05 13:42 28.97423 31.75466 26384 ft 451 kts 168°
2026-05-05 13:42 28.94394 31.76437 26733 ft 453 kts 168°
2026-05-05 13:43 28.91353 31.77405 27066 ft 455 kts 168°
2026-05-05 13:43 28.88295 31.78373 27405 ft 456 kts 168°
2026-05-05 13:43 28.85230 31.79342 27730 ft 458 kts 168°
2026-05-05 13:43 28.82153 31.80316 28042 ft 460 kts 168°
2026-05-05 13:44 28.79066 31.81298 28436 ft 459 kts 168°
2026-05-05 13:44 28.76038 31.82261 28881 ft 457 kts 168°
2026-05-05 13:44 28.72978 31.83235 29313 ft 456 kts 168°
2026-05-05 13:44 28.69926 31.84206 29745 ft 455 kts 168°
2026-05-05 13:45 28.66882 31.85171 30191 ft 453 kts 169°
2026-05-05 13:45 28.63849 31.86129 30620 ft 451 kts 169°
2026-05-05 13:45 28.60830 31.87081 31044 ft 450 kts 169°
2026-05-05 13:45 28.57814 31.88033 31459 ft 449 kts 169°
2026-05-05 13:46 28.54816 31.88984 31876 ft 447 kts 169°
2026-05-05 13:46 28.51821 31.89933 32290 ft 446 kts 169°
2026-05-05 13:46 28.48879 31.90860 32692 ft 444 kts 169°
2026-05-05 13:46 28.45904 31.91798 33101 ft 443 kts 169°
2026-05-05 13:47 28.42939 31.92735 33500 ft 442 kts 169°
2026-05-05 13:47 28.39981 31.93665 33899 ft 440 kts 169°
2026-05-05 13:47 28.37034 31.94591 34282 ft 439 kts 169°
2026-05-05 13:47 28.34095 31.95515 34632 ft 438 kts 169°
2026-05-05 13:48 28.31162 31.96436 34942 ft 437 kts 169°
2026-05-05 13:48 28.28231 31.97353 35249 ft 437 kts 169°
2026-05-05 13:48 28.25343 31.98259 35534 ft 436 kts 169°
2026-05-05 13:48 28.22424 31.99180 35809 ft 436 kts 169°
2026-05-05 13:49 28.19501 32.00101 36077 ft 435 kts 169°
2026-05-05 13:49 28.16583 32.01018 36336 ft 435 kts 169°
2026-05-05 13:49 28.13666 32.01933 36565 ft 435 kts 169°
2026-05-05 13:49 28.10748 32.02845 36841 ft 433 kts 169°
2026-05-05 13:50 28.07851 32.03755 37014 ft 431 kts 169°
2026-05-05 13:50 28.04949 32.04665 37048 ft 435 kts 169°
2026-05-05 13:50 27.99101 32.06503 37047 ft 442 kts 169°
2026-05-05 13:51 27.93176 32.08415 37042 ft 443 kts 169°
2026-05-05 13:51 27.87238 32.10321 37049 ft 443 kts 169°
2026-05-05 13:52 27.81339 32.12198 37046 ft 444 kts 169°
2026-05-05 13:52 27.75397 32.14090 37048 ft 444 kts 169°
2026-05-05 13:53 27.69449 32.15987 37058 ft 444 kts 169°
2026-05-05 13:53 27.63501 32.17882 37057 ft 444 kts 169°
2026-05-05 13:54 27.57549 32.19772 37059 ft 444 kts 169°
2026-05-05 13:54 27.51638 32.21648 37063 ft 445 kts 169°
2026-05-05 13:55 27.45698 32.23535 36996 ft 442 kts 169°
2026-05-05 13:55 27.39785 32.25412 36987 ft 442 kts 169°
2026-05-05 13:56 27.33881 32.27370 36987 ft 446 kts 163°
2026-05-05 13:56 27.28543 32.30960 36990 ft 459 kts 143°
2026-05-05 13:57 27.24262 32.36355 36988 ft 465 kts 133°
2026-05-05 13:57 27.20155 32.41964 36991 ft 465 kts 134°
2026-05-05 13:58 27.16025 32.47560 36995 ft 466 kts 134°
2026-05-05 13:58 27.11914 32.53118 36998 ft 466 kts 134°
2026-05-05 13:59 27.05712 32.61511 37001 ft 465 kts 134°
2026-05-05 14:00 26.99514 32.69904 37012 ft 465 kts 134°
2026-05-05 14:00 26.95403 32.75446 37016 ft 466 kts 134°
2026-05-05 14:01 26.91260 32.81032 37019 ft 466 kts 134°
2026-05-05 14:01 26.87118 32.86611 37020 ft 466 kts 134°
2026-05-05 14:02 26.82972 32.92183 37013 ft 465 kts 134°
2026-05-05 14:02 26.78832 32.97753 37008 ft 465 kts 134°
2026-05-05 14:03 26.74720 33.03274 37001 ft 465 kts 134°
2026-05-05 14:03 26.70570 33.08829 37001 ft 465 kts 134°
2026-05-05 14:04 26.66413 33.14378 37003 ft 465 kts 134°
2026-05-05 14:04 26.62260 33.19923 36999 ft 465 kts 134°
2026-05-05 14:05 26.58132 33.25439 36999 ft 466 kts 134°
2026-05-05 14:05 26.53977 33.30986 36998 ft 466 kts 134°
2026-05-05 14:06 26.49820 33.36534 36998 ft 466 kts 134°
2026-05-05 14:06 26.45655 33.42070 36997 ft 466 kts 134°
2026-05-05 14:07 26.41515 33.47565 36996 ft 465 kts 134°
2026-05-05 14:07 26.37352 33.53085 36998 ft 465 kts 134°
2026-05-05 14:08 26.33181 33.58608 36993 ft 465 kts 135°
2026-05-05 14:08 26.29009 33.64124 36990 ft 465 kts 135°
2026-05-05 14:09 26.24863 33.69593 36990 ft 465 kts 135°
2026-05-05 14:09 26.20693 33.75100 36989 ft 465 kts 135°
2026-05-05 14:10 26.16525 33.80601 36984 ft 465 kts 135°
2026-05-05 14:10 26.12352 33.86104 36984 ft 465 kts 135°
2026-05-05 14:11 26.08207 33.91560 36980 ft 465 kts 135°
2026-05-05 14:11 26.04030 33.97044 36981 ft 465 kts 135°
2026-05-05 14:12 25.99852 34.02531 36982 ft 465 kts 135°
2026-05-05 14:12 25.95670 34.08016 36978 ft 465 kts 135°
2026-05-05 14:13 25.91513 34.13455 36975 ft 465 kts 135°
2026-05-05 14:13 25.87329 34.18930 36974 ft 465 kts 135°
2026-05-05 14:14 25.83139 34.24400 36972 ft 465 kts 135°
2026-05-05 14:14 25.78954 34.29864 36971 ft 464 kts 135°
2026-05-05 14:15 25.74765 34.35327 36970 ft 465 kts 135°
2026-05-05 14:15 25.70600 34.40752 36971 ft 465 kts 135°
2026-05-05 14:16 25.66408 34.46209 36971 ft 465 kts 135°
2026-05-05 14:16 25.62211 34.51658 36969 ft 465 kts 135°
2026-05-05 14:17 25.57995 34.57096 36968 ft 465 kts 136°
2026-05-05 14:17 25.53561 34.62214 36967 ft 462 kts 141°
2026-05-05 14:18 25.48919 34.67118 36967 ft 461 kts 141°
2026-05-05 14:18 25.44294 34.72037 36966 ft 461 kts 141°
2026-05-05 14:19 25.39725 34.77025 36965 ft 461 kts 140°
2026-05-05 14:19 25.35210 34.81992 36965 ft 461 kts 140°
2026-05-05 14:20 25.30652 34.86974 36962 ft 461 kts 140°
2026-05-05 14:20 25.26091 34.91939 36962 ft 460 kts 140°
2026-05-05 14:21 25.21525 34.96906 36961 ft 460 kts 140°
2026-05-05 14:21 25.16958 35.01863 36960 ft 460 kts 140°
2026-05-05 14:22 25.12426 35.06783 36957 ft 460 kts 140°
2026-05-05 14:22 25.07856 35.11737 36956 ft 460 kts 140°
2026-05-05 14:23 25.03290 35.16680 36954 ft 460 kts 141°
2026-05-05 14:23 24.98714 35.21604 36952 ft 460 kts 141°
2026-05-05 14:24 24.94162 35.26481 36951 ft 459 kts 141°
2026-05-05 14:24 24.89577 35.31383 36950 ft 459 kts 141°
2026-05-05 14:25 24.84997 35.36289 36946 ft 459 kts 141°
2026-05-05 14:25 24.80453 35.41167 36944 ft 459 kts 141°
2026-05-05 14:26 24.75879 35.46066 36945 ft 459 kts 141°
2026-05-05 14:26 24.71293 35.50947 36943 ft 459 kts 141°
2026-05-05 14:27 24.66711 35.55827 36937 ft 459 kts 141°
2026-05-05 14:27 24.62131 35.60705 36934 ft 459 kts 141°
2026-05-05 14:28 24.57580 35.65542 36930 ft 458 kts 141°
2026-05-05 14:28 24.53002 35.70413 36928 ft 458 kts 141°
2026-05-05 14:29 24.48423 35.75282 36927 ft 458 kts 141°
2026-05-05 14:29 24.43844 35.80144 36912 ft 458 kts 141°
2026-05-05 14:30 24.39295 35.84969 36915 ft 458 kts 141°
2026-05-05 14:30 24.34713 35.89821 36920 ft 458 kts 141°
2026-05-05 14:31 24.30127 35.94669 36918 ft 458 kts 141°
2026-05-05 14:31 24.25542 35.99511 36918 ft 458 kts 141°
2026-05-05 14:32 24.20954 36.04356 36909 ft 458 kts 141°
2026-05-05 14:32 24.16401 36.09157 36902 ft 457 kts 141°
2026-05-05 14:33 24.11809 36.13986 36910 ft 457 kts 141°
2026-05-05 14:33 24.07224 36.18806 36917 ft 457 kts 141°
2026-05-05 14:34 24.02642 36.23634 36927 ft 457 kts 141°
2026-05-05 14:34 23.98080 36.28418 36918 ft 457 kts 141°
2026-05-05 14:35 23.93489 36.33227 36859 ft 456 kts 141°
2026-05-05 14:35 23.88906 36.38022 36848 ft 456 kts 141°
2026-05-05 14:36 23.84324 36.42821 36845 ft 456 kts 141°
2026-05-05 14:36 23.79770 36.47592 36842 ft 457 kts 141°
2026-05-05 14:37 23.75175 36.52389 36841 ft 457 kts 141°
2026-05-05 14:37 23.70581 36.57183 36841 ft 457 kts 141°
2026-05-05 14:38 23.66010 36.61937 36838 ft 457 kts 141°
2026-05-05 14:38 23.61417 36.66720 36835 ft 457 kts 141°
2026-05-05 14:39 23.56815 36.71506 36831 ft 457 kts 141°
2026-05-05 14:39 23.52213 36.76293 36838 ft 457 kts 141°
2026-05-05 14:40 23.47639 36.81045 36835 ft 457 kts 141°
2026-05-05 14:40 23.43030 36.85816 36834 ft 457 kts 141°
2026-05-05 14:41 23.38425 36.90585 36830 ft 457 kts 141°
2026-05-05 14:41 23.33813 36.95355 36836 ft 457 kts 141°
2026-05-05 14:42 23.29230 37.00084 36819 ft 458 kts 141°
2026-05-05 14:42 23.24616 37.04853 36823 ft 457 kts 141°
2026-05-05 14:43 23.20002 37.09616 36830 ft 458 kts 141°
2026-05-05 14:43 23.15384 37.14381 36830 ft 457 kts 141°
2026-05-05 14:44 23.10801 37.19104 36837 ft 458 kts 141°
2026-05-05 14:44 23.06176 37.23859 36833 ft 458 kts 141°
2026-05-05 14:45 23.01555 37.28608 36834 ft 458 kts 141°
2026-05-05 14:45 22.96925 37.33354 36842 ft 458 kts 141°
2026-05-05 14:46 22.92336 37.38071 36837 ft 458 kts 141°
2026-05-05 14:46 22.87710 37.42812 36840 ft 457 kts 141°
2026-05-05 14:47 22.83082 37.47551 36835 ft 458 kts 141°
2026-05-05 14:47 22.78457 37.52288 36693 ft 456 kts 141°
2026-05-05 14:48 22.76163 37.54656 36102 ft 457 kts 138°
2026-05-05 14:48 22.74108 37.57305 35449 ft 463 kts 129°
2026-05-05 14:48 22.72258 37.60118 34773 ft 466 kts 129°
2026-05-05 14:48 22.70368 37.62984 33992 ft 470 kts 129°
2026-05-05 14:49 22.68460 37.65880 33223 ft 473 kts 129°
2026-05-05 14:49 22.66553 37.68784 32932 ft 475 kts 129°
2026-05-05 14:49 22.64632 37.71715 32777 ft 477 kts 129°
2026-05-05 14:49 22.62712 37.74649 32826 ft 479 kts 129°
2026-05-05 14:50 22.58855 37.80542 32823 ft 480 kts 129°
2026-05-05 14:50 22.55020 37.86382 32835 ft 479 kts 129°
2026-05-05 14:51 22.51156 37.92259 32831 ft 479 kts 129°
2026-05-05 14:51 22.47289 37.98127 32820 ft 479 kts 129°
2026-05-05 14:52 22.43420 38.03980 32822 ft 479 kts 129°
2026-05-05 14:52 22.39578 38.09801 32830 ft 479 kts 129°
2026-05-05 14:53 22.35718 38.15651 32412 ft 476 kts 129°
2026-05-05 14:53 22.33794 38.18561 31609 ft 477 kts 129°
2026-05-05 14:53 22.31867 38.21472 31011 ft 473 kts 129°
2026-05-05 14:54 22.29961 38.24353 30449 ft 470 kts 129°
2026-05-05 14:54 22.28071 38.27213 29888 ft 466 kts 129°
2026-05-05 14:54 22.26195 38.30047 29352 ft 462 kts 129°
2026-05-05 14:54 22.24358 38.32814 28806 ft 458 kts 129°
2026-05-05 14:55 22.22512 38.35596 28278 ft 454 kts 128°
2026-05-05 14:55 22.20679 38.38353 27733 ft 450 kts 129°
2026-05-05 14:55 22.18829 38.41053 27215 ft 445 kts 130°
2026-05-05 14:55 22.16953 38.43687 26696 ft 441 kts 130°
2026-05-05 14:56 22.15066 38.46278 26172 ft 437 kts 131°
2026-05-05 14:56 22.13183 38.48841 25665 ft 433 kts 131°
2026-05-05 14:56 22.11320 38.51379 25169 ft 430 kts 130°
2026-05-05 14:56 22.09484 38.53900 24692 ft 426 kts 130°
2026-05-05 14:57 22.07694 38.56376 24309 ft 420 kts 130°
2026-05-05 14:57 22.05925 38.58837 24188 ft 409 kts 130°
2026-05-05 14:57 22.04207 38.61231 24054 ft 399 kts 130°
2026-05-05 14:57 22.02535 38.63565 23933 ft 388 kts 130°
2026-05-05 14:58 22.00916 38.65832 23724 ft 378 kts 130°
2026-05-05 14:58 21.99323 38.68061 23400 ft 373 kts 130°
2026-05-05 14:58 21.97746 38.70267 23040 ft 370 kts 129°
2026-05-05 14:58 21.96185 38.72450 22662 ft 366 kts 129°
2026-05-05 14:59 21.94655 38.74592 22285 ft 364 kts 129°
2026-05-05 14:59 21.93118 38.76743 21912 ft 361 kts 129°
2026-05-05 14:59 21.91590 38.78880 21531 ft 359 kts 129°
2026-05-05 14:59 21.90072 38.80997 21162 ft 356 kts 129°
2026-05-05 15:00 21.88563 38.83098 20778 ft 353 kts 129°
2026-05-05 15:00 21.87568 38.84481 20524 ft 352 kts 129°
2026-05-05 15:00 21.85574 38.87258 20022 ft 349 kts 129°
2026-05-05 15:00 21.84096 38.89317 19655 ft 346 kts 129°
2026-05-05 15:01 21.82629 38.91359 19285 ft 344 kts 129°
2026-05-05 15:01 21.81182 38.93369 19129 ft 335 kts 129°
2026-05-05 15:01 21.79779 38.95321 19000 ft 325 kts 129°
2026-05-05 15:01 21.78386 38.97138 18887 ft 314 kts 138°
2026-05-05 15:02 21.76694 38.98537 18774 ft 301 kts 153°
2026-05-05 15:02 21.74812 38.99421 18648 ft 290 kts 162°
2026-05-05 15:02 21.72943 39.00167 18488 ft 284 kts 161°
2026-05-05 15:02 21.71104 39.00904 18224 ft 280 kts 161°
2026-05-05 15:03 21.69279 39.01633 17919 ft 279 kts 161°
2026-05-05 15:03 21.67467 39.02355 17610 ft 278 kts 161°
2026-05-05 15:03 21.65662 39.03076 17304 ft 276 kts 161°
2026-05-05 15:03 21.63864 39.03789 17005 ft 275 kts 161°
2026-05-05 15:04 21.62096 39.04483 16728 ft 272 kts 162°
2026-05-05 15:04 21.60339 39.05168 16439 ft 266 kts 161°
2026-05-05 15:04 21.58604 39.05846 16059 ft 264 kts 162°
2026-05-05 15:04 21.56884 39.06518 15683 ft 262 kts 161°
2026-05-05 15:05 21.53492 39.07847 14942 ft 257 kts 161°
2026-05-05 15:05 21.51821 39.08505 14570 ft 255 kts 161°
2026-05-05 15:05 21.50165 39.09160 14215 ft 252 kts 161°
2026-05-05 15:06 21.48526 39.09806 13843 ft 250 kts 161°
2026-05-05 15:06 21.46918 39.10439 13468 ft 249 kts 161°
2026-05-05 15:06 21.45297 39.11077 13107 ft 247 kts 161°
2026-05-05 15:06 21.43689 39.11715 12752 ft 245 kts 161°
2026-05-05 15:07 21.42099 39.12344 12397 ft 242 kts 161°
2026-05-05 15:07 21.40520 39.12969 12021 ft 241 kts 161°
2026-05-05 15:07 21.38953 39.13589 11649 ft 240 kts 160°
2026-05-05 15:07 21.37394 39.14206 11277 ft 238 kts 160°
2026-05-05 15:08 21.35866 39.14811 10901 ft 237 kts 160°
2026-05-05 15:08 21.34322 39.15421 10523 ft 236 kts 160°
2026-05-05 15:08 21.32786 39.16025 10147 ft 234 kts 160°
2026-05-05 15:08 21.31261 39.16626 9776 ft 233 kts 160°
2026-05-05 15:09 21.29750 39.17223 9399 ft 231 kts 160°
2026-05-05 15:09 21.28240 39.17824 8997 ft 231 kts 160°
2026-05-05 15:09 21.26734 39.18427 8598 ft 230 kts 158°
2026-05-05 15:09 21.25435 39.19389 8206 ft 228 kts 129°
2026-05-05 15:10 21.24746 39.20896 7789 ft 227 kts 98°
2026-05-05 15:10 21.24836 39.22562 7451 ft 225 kts 70°
2026-05-05 15:10 21.25364 39.24116 7121 ft 226 kts 69°
2026-05-05 15:10 21.25906 39.25685 6825 ft 224 kts 69°
2026-05-05 15:11 21.26507 39.27214 6512 ft 221 kts 55°
2026-05-05 15:11 21.27596 39.28331 6182 ft 217 kts 25°
2026-05-05 15:11 21.29029 39.28739 5836 ft 214 kts 357°
2026-05-05 15:11 21.30464 39.28403 5515 ft 212 kts 338°
2026-05-05 15:12 21.31842 39.27850 5224 ft 211 kts 338°
2026-05-05 15:12 21.33192 39.27314 4933 ft 209 kts 339°
2026-05-05 15:12 21.34558 39.26774 4632 ft 209 kts 339°
2026-05-05 15:12 21.35912 39.26238 4351 ft 206 kts 338°
2026-05-05 15:13 21.37247 39.25705 4060 ft 203 kts 339°
2026-05-05 15:13 21.38577 39.25176 3736 ft 204 kts 338°
2026-05-05 15:13 21.39906 39.24653 3448 ft 203 kts 339°
2026-05-05 15:13 21.41234 39.24130 3198 ft 202 kts 339°
2026-05-05 15:14 21.42552 39.23611 3127 ft 202 kts 339°
2026-05-05 15:14 21.43874 39.23092 3128 ft 203 kts 339°
2026-05-05 15:14 21.45177 39.22580 3122 ft 203 kts 339°
2026-05-05 15:14 21.46499 39.22061 3122 ft 202 kts 339°
2026-05-05 15:15 21.47823 39.21539 3099 ft 203 kts 339°
2026-05-05 15:15 21.49145 39.21018 2913 ft 202 kts 339°
2026-05-05 15:15 21.50459 39.20500 2780 ft 200 kts 339°
2026-05-05 15:15 21.51766 39.19986 2699 ft 200 kts 339°
2026-05-05 15:16 21.53081 39.19471 2720 ft 203 kts 339°
2026-05-05 15:16 21.54377 39.18960 2634 ft 193 kts 339°
2026-05-05 15:16 21.55576 39.18487 2399 ft 180 kts 339°
2026-05-05 15:16 21.56710 39.18040 2164 ft 167 kts 339°
2026-05-05 15:17 21.57759 39.17627 1958 ft 156 kts 339°
2026-05-05 15:17 21.58753 39.17235 1762 ft 150 kts 339°
2026-05-05 15:17 21.59720 39.16853 1570 ft 147 kts 339°
2026-05-05 15:17 21.60675 39.16477 1376 ft 145 kts 339°
2026-05-05 15:18 21.61618 39.16105 1187 ft 144 kts 339°
2026-05-05 15:18 21.62556 39.15735 997 ft 143 kts 339°
2026-05-05 15:18 21.63478 39.15372 799 ft 143 kts 339°
2026-05-05 15:18 21.64412 39.15007 586 ft 143 kts 339°
2026-05-05 15:19 21.65348 39.14636 386 ft 143 kts 339°
2026-05-05 15:19 21.66284 39.14265 200 ft 144 kts 339°
2026-05-05 15:19 21.67223 39.13893 46 ft 144 kts 339°
2026-05-05 15:19 21.68031 39.13574 28 ft 88 kts 340°
2026-05-05 15:20 21.68340 39.13453 27 ft 24 kts 340°
2026-05-05 15:20 21.68507 39.13413 26 ft 25 kts 356°
2026-05-05 15:20 21.68641 39.13429 25 ft 12 kts 12°
2026-05-05 15:20 21.68694 39.13439 27 ft 1 kts 10°
2026-05-05 15:21 21.68705 39.13441 25 ft 2 kts 10°
2026-05-05 15:21 21.68727 39.13445 25 ft 4 kts 10°
2026-05-05 15:21 21.68761 39.13452 25 ft 6 kts 12°
2026-05-05 15:21 21.68812 39.13459 26 ft 9 kts
2026-05-05 15:22 21.68887 39.13451 24 ft 13 kts 347°
2026-05-05 15:22 21.68979 39.13416 27 ft 15 kts 339°
2026-05-05 15:22 21.69081 39.13376 28 ft 17 kts 340°
2026-05-05 15:22 21.69193 39.13332 27 ft 15 kts 339°
2026-05-05 15:23 21.69296 39.13291 26 ft 17 kts 339°
2026-05-05 15:23 21.69361 39.13287 24 ft 8 kts 30°
2026-05-05 15:23 21.69366 39.13346 23 ft 10 kts 122°
2026-05-05 15:23 21.69293 39.13387 23 ft 13 kts 160°
2026-05-05 15:24 21.69199 39.13425 24 ft 16 kts 159°
2026-05-05 15:24 21.69090 39.13468 22 ft 18 kts 161°
2026-05-05 15:24 21.68965 39.13517 23 ft 20 kts 159°
2026-05-05 15:24 21.68824 39.13572 22 ft 23 kts 160°
2026-05-05 15:25 21.68668 39.13634 21 ft 25 kts 159°
2026-05-05 15:25 21.68530 39.13688 23 ft 12 kts 160°
2026-05-05 15:25 21.68459 39.13716 21 ft 4 kts 160°
2026-05-05 15:25 21.68449 39.13720 21 ft 0 kts 160°
2026-05-05 15:26 21.68447 39.13721 21 ft 2 kts 160°
2026-05-05 15:27 21.68437 39.13724 21 ft 1 kts 160°
2026-05-05 15:27 21.68416 39.13733 21 ft 5 kts 160°
2026-05-05 15:27 21.68367 39.13752 24 ft 9 kts 160°
2026-05-05 15:27 21.68303 39.13778 21 ft 11 kts 160°
2026-05-05 15:28 21.68252 39.13820 25 ft 10 kts 107°
2026-05-05 15:28 21.68269 39.13897 25 ft 12 kts 70°
2026-05-05 15:28 21.68300 39.13990 22 ft 15 kts 70°
2026-05-05 15:28 21.68340 39.14103 23 ft 18 kts 69°
2026-05-05 15:29 21.68388 39.14239 22 ft 21 kts 70°
2026-05-05 15:29 21.68440 39.14393 21 ft 23 kts 69°
2026-05-05 15:29 21.68499 39.14562 24 ft 25 kts 69°
2026-05-05 15:29 21.68554 39.14723 23 ft 20 kts 70°
2026-05-05 15:30 21.68605 39.14870 25 ft 22 kts 69°
2026-05-05 15:30 21.68655 39.15017 25 ft 15 kts 70°
2026-05-05 15:30 21.68690 39.15119 28 ft 14 kts 69°
2026-05-05 15:30 21.68721 39.15207 31 ft 13 kts 69°
2026-05-05 15:31 21.68742 39.15269 31 ft 3 kts 70°
2026-05-05 15:31 21.68745 39.15276 31 ft 0 kts 70°
2026-05-05 15:32 21.68746 39.15280 31 ft 3 kts 70°
2026-05-05 15:32 21.68761 39.15322 31 ft 10 kts 70°
2026-05-05 15:32 21.68790 39.15406 33 ft 13 kts 70°
2026-05-05 15:32 21.68821 39.15497 34 ft 14 kts 70°
2026-05-05 15:33 21.68857 39.15601 33 ft 16 kts 70°
2026-05-05 15:33 21.68874 39.15676 32 ft 10 kts 99°
2026-05-05 15:33 21.68812 39.15725 31 ft 13 kts 158°
2026-05-05 15:33 21.68718 39.15762 31 ft 15 kts 159°
2026-05-05 15:34 21.68615 39.15804 31 ft 16 kts 160°
2026-05-05 15:34 21.68502 39.15848 31 ft 19 kts 160°
2026-05-05 15:34 21.68373 39.15899 33 ft 20 kts 160°
2026-05-05 15:34 21.68236 39.15953 34 ft 22 kts 160°
2026-05-05 15:35 21.68084 39.16013 33 ft 25 kts 160°
2026-05-05 15:35 21.67937 39.16071 34 ft 17 kts 160°
2026-05-05 15:35 21.67821 39.16117 31 ft 17 kts 160°
2026-05-05 15:35 21.67729 39.16153 31 ft 9 kts 159°
2026-05-05 15:36 21.67711 39.16160 30 ft 1 kts 160°
2026-05-05 15:36 21.67695 39.16166 30 ft 4 kts 160°
2026-05-05 15:36 21.67664 39.16179 30 ft 6 kts 159°
2026-05-05 15:36 21.67618 39.16198 30 ft 8 kts 159°
2026-05-05 15:37 21.67559 39.16222 30 ft 10 kts 160°
2026-05-05 15:37 21.67485 39.16250 30 ft 13 kts 160°
2026-05-05 15:37 21.67396 39.16285 30 ft 15 kts 160°
2026-05-05 15:37 21.67292 39.16325 30 ft 17 kts 160°
2026-05-05 15:38 21.67175 39.16369 31 ft 19 kts 160°
2026-05-05 15:38 21.67044 39.16420 31 ft 21 kts 159°
2026-05-05 15:38 21.66898 39.16478 31 ft 24 kts 160°
2026-05-05 15:38 21.66750 39.16537 31 ft 19 kts 160°
2026-05-05 15:39 21.66672 39.16567 31 ft 9 kts 160°
2026-05-05 15:39 21.66638 39.16624 31 ft 11 kts 87°
2026-05-05 15:39 21.66664 39.16709 31 ft 13 kts 70°
2026-05-05 15:39 21.66698 39.16810 30 ft 14 kts 69°
2026-05-05 15:40 21.66716 39.16875 30 ft 9 kts 89°
2026-05-05 15:40 21.66670 39.16927 30 ft 10 kts 157°
2026-05-05 15:40 21.66645 39.16956 30 ft 5 kts 99°
2026-05-05 15:40 21.66652 39.16986 30 ft 5 kts 73°
2026-05-05 15:41 21.66657 39.17013 30 ft 3 kts 80°
2026-05-05 15:41 21.66658 39.17024 30 ft 1 kts 82°
2026-05-05 15:41 21.66659 39.17029 30 ft 0 kts 82°